Weather in Sazonovo

Russia / Vologda Oblast     59°05′50″N   35°13′29″E
temp.,
°C
wind,
m/s
gust,
m/s
humid.,
%
clouds,
%
prec.,
mm/h
press.,
hPa
HPBL,
m
8 may, sat
sat800:00+4sse2386100 0.0 100847
03:00+4se2688100 0.0 1007122
06:00+6se4138489 0.0 1006523
09:00+8sse61280100 0.3 10051443
12:00+8s4989100 0.3 1005937
15:00+7w2493100 0.8 1005354
18:00+8wnw2579100 0.1 1005738
21:00+5nw4986100 0.1 1006557
9 may, sun
sun900:00+3nw51085100 0.0 1006753
03:00+3nw41086100 0.0 1007938
06:00+3nw51280100 0.0 1009986
09:00+7nw61157100 0.0 10101229
12:00+10nw6839100 0.0 10122368
15:00+11nw6836100 0.0 10142601
18:00+10nw58391 0.0 10172013
21:00+4wnw22570 0.0 102031
10 may, mon
mon1000:00+2wsw22640 0.0 102226
03:00+2sw24736 0.0 102469
06:00+4ssw3106899 0.0 1025247
09:00+10ssw51050100 0.0 1025821
12:00+9ssw51067100 0.1 10251236
15:00+11ssw495891 0.2 1025814
18:00+14ssw375816 0.0 1025894
21:00+9s238673 0.0 102648
11 may, tue
tue1100:00+8ssw3992100 0.0 1027171
03:00+8ssw3119062 0.0 1028218
06:00+9ssw3984100 0.0 1029237
09:00+15ssw476049 0.0 1029530
12:00+19ssw464538 0.0 10291262
15:00+20ssw464243 0.0 10281514
18:00+20s344918 0.0 10271301
21:00+13sse39803 0.0 1028181
12 may, wed
wed1200:00+10s29882 0.0 1029177
03:00+9s22918 0.0 102932
06:00+10sse25817 0.0 1029143
09:00+16se34504 0.0 1028591
12:00+20se353613 0.0 10271229
15:00+22sse34371 0.0 10261331
18:00+21se34480 0.0 10251178
21:00+15se25790 0.0 102684